GW5563 Weather Reports


time (UTC)temp
F
wind
direction
speed
knots
gust
knots
rain 1hr
in
rain 24hr
in
rain mn
in
humidity
%
barometer
mb
20260906225647 65 2 5.2 6.1 0.00 0.00 0.00 76 1014.0
20260906225143 65 16 7.0 8.7 0.00 0.00 0.00 76 1013.8
20260906224638 64 347 4.3 6.1 0.00 0.00 0.00 78 1013.6
20260906224135 64 31 8.7 9.6 0.00 0.00 0.00 78 1014.0
20260906223631 63 314 5.2 6.1 0.00 0.00 0.00 79 1014.1
20260906223130 63 353 6.1 7.0 0.00 0.00 0.00 79 1013.8
20260906222629 64 345 8.7 9.6 0.00 0.00 0.00 78 1013.9
20260906222128 64 6 8.7 9.6 0.00 0.00 0.00 78 1014.1
20260906221627 64 24 7.0 7.8 0.00 0.00 0.00 78 1013.9
20260906221127 63 299 7.8 9.6 0.00 0.00 0.00 79 1014.0
20260906220622 63 30 7.8 9.6 0.00 0.00 0.00 80 1014.0
20260906220117 62 356 5.2 7.0 0.00 0.00 0.00 81 1014.0
20260906215616 62 34 6.1 7.8 0.00 0.00 0.00 81 1014.0
20260906215115 62 34 4.3 7.0 0.00 0.00 0.00 81 1014.0
20260906214614 62 16 9.6 9.6 0.00 0.00 0.00 81 1014.2
20260906214109 62 0 9.6 11.3 0.00 0.00 0.00 80 1014.0
20260906213608 62 22 10.4 11.3 0.00 0.00 0.00 81 1014.2
20260906213103 62 114 3.5 5.2 0.00 0.00 0.00 81 1014.2
20260906212600 62 17 5.2 7.0 0.00 0.00 0.00 81 1014.2
20260906212056 61 38 7.8 9.6 0.00 0.00 0.00 82 1014.1
20260906211555 61 5 7.0 7.8 0.00 0.00 0.00 81 1014.2
20260906211051 61 5 7.8 8.7 0.00 0.00 0.00 82 1014.2
20260906210546 61 24 9.6 11.3 0.00 0.00 0.00 82 1014.5
20260906210041 61 356 7.8 9.6 0.00 0.00 0.00 81 1014.4
20260906205537 62 31 7.0 7.8 0.00 0.00 0.00 81 1014.4
20260906205033 62 12 10.4 13.9 0.00 0.00 0.00 80 1014.4
20260906204532 62 10 10.4 12.2 0.00 0.00 0.00 79 1014.1
20260906204032 62 11 13.0 15.6 0.00 0.00 0.00 79 1014.2
20260906203532 62 29 10.4 12.2 0.00 0.00 0.00 79 1014.4
20260906203027 61 343 7.8 11.3 0.00 0.00 0.00 81 1014.5
20260906202523 62 8 8.7 9.6 0.00 0.00 0.00 80 1014.1
20260906202018 62 15 12.2 14.8 0.00 0.00 0.00 79 1014.4
20260906201518 62 8 9.6 13.0 0.00 0.00 0.00 79 1014.1
20260906201018 62 14 9.6 12.2 0.00 0.00 0.00 79 1014.1
20260906200514 63 8 7.8 13.0 0.00 0.00 0.00 79 1014.4
20260906200009 63 13 10.4 13.9 0.00 0.00 0.00 78 1014.1
20260906195505 62 29 9.6 13.0 0.00 0.00 0.00 79 1014.4
20260906195001 63 58 10.4 13.0 0.00 0.00 0.00 78 1014.4
20260906194456 62 20 12.2 14.8 0.00 0.00 0.00 79 1014.1
20260906193952 63 27 8.7 11.3 0.00 0.00 0.00 78 1014.2
20260906193447 62 357 11.3 13.0 0.00 0.00 0.00 78 1014.2
20260906192942 62 321 10.4 12.2 0.00 0.00 0.00 77 1014.4
20260906192437 62 28 8.7 13.9 0.00 0.00 0.00 78 1014.5
20260906191936 62 81 7.8 9.6 0.00 0.00 0.00 77 1014.2
20260906191431 62 46 9.6 13.9 0.00 0.00 0.00 77 1014.1
20260906190930 62 49 9.6 12.2 0.00 0.00 0.00 77 1014.0
20260906190429 62 13 12.2 13.9 0.00 0.00 0.00 76 1014.2
20260906185924 61 28 7.8 9.6 0.00 0.00 0.00 78 1014.2
20260906185424 61 24 13.9 15.6 0.00 0.00 0.00 78 1014.4
20260906184923 60 27 13.0 15.6 0.00 0.00 0.00 78 1014.2
20260906184418 60 351 13.0 15.6 0.00 0.00 0.00 79 1014.4
20260906183914 61 12 13.9 17.4 0.00 0.00 0.00 79 1014.5
20260906183410 60 8 13.9 17.4 0.00 0.00 0.00 81 1014.2
20260906182905 60 12 15.6 18.2 0.00 0.00 0.00 79 1014.8
20260906182400 59 18 11.3 13.9 0.00 0.00 0.00 82 1014.9
20260906181855 61 1 16.5 19.1 0.00 0.00 0.00 80 1014.7
20260906181352 59 20 10.4 13.0 0.00 0.00 0.00 81 1014.7
20260906180847 58 58 12.2 14.8 0.00 0.00 0.00 82 1014.6
20260906180342 57 16 13.9 18.2 0.00 0.00 0.00 84 1015.5
20260906175839 57 19 6.1 7.0 0.00 0.00 0.00 86 1015.8
20260906175334 57 6 13.9 15.6 0.00 0.00 0.00 84 1016.1
20260906174834 57 350 15.6 17.4 0.00 0.00 0.00 85 1015.6
20260906174333 57 20 10.4 11.3 0.00 0.00 0.00 87 1016.0
20260906173828 57 358 12.2 13.0 0.00 0.00 0.00 87 1016.1
20260906173324 57 343 11.3 14.8 0.00 0.00 0.00 88 1016.1
20260906172823 56 352 11.3 13.0 0.00 0.00 0.00 88 1016.0
20260906172319 57 1 11.3 14.8 0.00 0.00 0.00 89 1016.1
20260906171813 56 36 9.6 9.6 0.00 0.00 0.00 90 1016.1
20260906171308 56 8 10.4 13.9 0.00 0.00 0.00 90 1015.9
20260906170804 56 359 9.6 12.2 0.00 0.00 0.00 89 1016.0
20260906170301 56 28 12.2 14.8 0.00 0.00 0.00 89 1016.1
20260906165756 56 355 7.0 7.8 0.00 0.00 0.00 90 1016.2
20260906165255 56 340 12.2 13.0 0.00 0.00 0.00 90 1016.2
20260906164755 56 356 11.3 13.0 0.00 0.00 0.00 91 1016.5
20260906164249 56 21 9.6 11.3 0.00 0.00 0.00 91 1016.5
20260906163746 55 38 10.4 12.2 0.00 0.00 0.00 92 1016.3
20260906163242 55 1 12.2 13.9 0.00 0.00 0.00 92 1016.5
20260906162739 56 42 8.7 9.6 0.00 0.00 0.00 92 1016.0
20260906162233 56 1 10.4 13.0 0.00 0.00 0.00 91 1016.1
20260906161733 56 359 11.3 13.9 0.00 0.00 0.00 90 1015.9
20260906161232 57 12 13.0 17.4 0.00 0.00 0.00 88 1016.2
20260906160732 58 12 10.4 13.0 0.00 0.00 0.00 86 1016.3
20260906160231 59 51 7.0 7.8 0.00 0.00 0.00 86 1016.7
20260906155729 58 74 4.3 5.2 0.00 0.00 0.00 89 1016.5
20260906155224 58 314 3.5 6.1 0.00 0.00 0.00 89 1016.7
20260906154719 57 16 4.3 5.2 0.00 0.00 0.00 91 1016.5
20260906154214 57 17 5.2 6.1 0.00 0.00 0.00 92 1016.9
20260906153712 57 41 4.3 5.2 0.00 0.00 0.00 92 1017.0
20260906153207 57 338 6.1 7.0 0.00 0.00 0.00 92 1017.0
20260906152703 57 346 7.0 7.8 0.00 0.00 0.00 92 1016.9
20260906152156 57 318 7.0 7.8 0.00 0.00 0.00 92 1017.1
20260906151651 58 333 4.3 5.2 0.00 0.00 0.00 92 1016.9
20260906151147 58 339 5.2 6.1 0.00 0.00 0.00 92 1016.8
20260906150642 58 357 5.2 7.0 0.00 0.00 0.00 93 1016.8
20260906150137 58 19 2.6 2.6 0.00 0.00 0.00 92 1016.8
20260906145636 58 71 2.6 4.3 0.00 0.00 0.00 92 1016.7
20260906145131 58 37 4.3 5.2 0.00 0.00 0.00 92 1016.6
20260906144631 58 36 6.1 7.0 0.00 0.00 0.00 93 1016.7
20260906144126 58 54 5.2 7.8 0.00 0.00 0.00 93 1016.5
20260906143626 57 27 4.3 6.1 0.00 0.00 0.00 94 1016.6
20260906143123 57 348 7.0 7.8 0.00 0.00 0.00 94 1016.7
20260906142622 57 65 5.2 6.1 0.00 0.00 0.00 94 1016.6
20260906142117 57 63 7.0 8.7 0.00 0.00 0.00 94 1016.9
20260906141616 57 69 2.6 4.3 0.00 0.00 0.00 94 1016.8
20260906141112 57 23 7.0 8.7 0.00 0.00 0.00 94 1016.9
20260906140611 57 22 6.1 8.7 0.00 0.00 0.00 95 1016.7
20260906140106 56 82 6.1 7.0 0.00 0.00 0.00 95 1016.8
20260906135603 56 38 4.3 7.0 0.00 0.00 0.00 96 1016.7
20260906135059 56 17 6.1 7.0 0.00 0.00 0.00 96 1016.9
20260906134554 56 26 5.2 7.0 0.00 0.00 0.00 96 1016.6
20260906134054 55 341 5.2 7.0 0.00 0.00 0.00 96 1016.3
20260906133550 55 10 6.1 7.8 0.00 0.00 0.00 96 1016.5
20260906133045 55 54 6.1 7.0 0.00 0.00 0.00 97 1016.2
20260906132540 55 349 7.0 7.8 0.00 0.00 0.00 97 1016.2
20260906132036 55 25 4.3 5.2 0.00 0.00 0.00 97 1016.5
20260906131531 55 12 4.3 6.1 0.00 0.00 0.00 97 1016.7
20260906131026 55 356 7.0 7.0 0.00 0.00 0.00 97 1016.6
20260906130526 55 45 5.2 6.1 0.00 0.00 0.00 97 1016.5
20260906130021 55 49 5.2 7.0 0.00 0.00 0.00 97 1016.7
20260906125518 55 39 6.1 7.8 0.00 0.00 0.00 97 1016.7
20260906125013 54 10 7.0 8.7 0.00 0.00 0.00 97 1017.1
20260906124508 54 6 5.2 6.1 0.00 0.00 0.00 97 1016.8
20260906124004 54 34 7.0 7.8 0.00 0.00 0.00 97 1016.6
20260906123502 54 45 6.1 7.8 0.00 0.00 0.00 97 1016.8
20260906123003 54 26 8.7 9.6 0.00 0.00 0.00 97 1016.7
20260906122457 54 30 7.0 9.6 0.00 0.00 0.00 97 1016.8
20260906121954 54 12 9.6 12.2 0.00 0.00 0.00 97 1016.6
20260906121449 54 13 8.7 12.2 0.00 0.00 0.00 97 1016.5
20260906120946 54 34 7.8 9.6 0.00 0.00 0.00 97 1016.8
20260906120441 54 16 8.7 9.6 0.00 0.00 0.00 97 1016.9
20260906115937 54 5 8.7 9.6 0.00 0.00 0.00 97 1016.9
20260906115432 54 14 7.8 11.3 0.00 0.00 0.00 96 1016.9
20260906114932 54 29 7.0 9.6 0.00 0.00 0.00 96 1017.1
20260906114426 55 34 7.8 8.7 0.00 0.00 0.00 96 1017.0
20260906113922 55 12 7.0 7.8 0.00 0.00 0.00 96 1017.0
20260906113420 55 10 6.1 8.7 0.00 0.00 0.00 96 1017.0
20260906112917 55 9 7.8 8.7 0.00 0.00 0.00 96 1017.2
20260906112412 55 25 7.8 7.8 0.00 0.00 0.00 96 1016.9
20260906111907 55 26 6.1 7.0 0.00 0.00 0.00 96 1016.8
20260906111407 55 20 7.0 8.7 0.00 0.00 0.00 95 1016.7
20260906110902 55 18 10.4 11.3 0.00 0.00 0.00 96 1016.6
20260906110357 55 17 8.7 11.3 0.00 0.00 0.00 96 1017.1
20260906105856 55 34 7.8 9.6 0.00 0.00 0.00 96 1017.1
20260906105352 55 6 7.8 11.3 0.00 0.00 0.00 96 1017.1
20260906104848 54 50 7.0 7.0 0.00 0.00 0.00 96 1016.9
20260906104346 54 17 8.7 9.6 0.00 0.00 0.00 96 1016.8
20260906103845 55 13 10.4 12.2 0.00 0.00 0.00 96 1017.0
20260906103343 55 19 8.7 13.0 0.00 0.00 0.00 96 1017.0
20260906102840 55 29 10.4 12.2 0.00 0.00 0.00 96 1017.3
20260906102338 55 21 8.7 12.2 0.00 0.00 0.00 96 1017.1
20260906101834 55 2 9.6 12.2 0.00 0.00 0.00 96 1017.1
20260906101329 55 19 11.3 13.9 0.00 0.00 0.00 96 1017.0
20260906100825 55 355 9.6 13.0 0.00 0.00 0.00 96 1017.1
20260906100323 55 351 9.6 13.0 0.00 0.00 0.00 96 1017.0
20260906095819 55 324 13.0 14.8 0.00 0.00 0.00 96 1016.8
20260906095314 55 14 12.2 13.9 0.00 0.00 0.00 96 1017.0
20260906094813 55 1 10.4 13.0 0.00 0.00 0.00 96 1016.9
20260906094308 55 326 11.3 13.9 0.00 0.00 0.00 96 1016.9
20260906093805 54 31 10.4 13.0 0.00 0.00 0.00 97 1017.2
20260906093300 54 1 12.2 13.9 0.00 0.00 0.00 97 1017.2
20260906092756 54 354 10.4 13.9 0.00 0.00 0.00 97 1017.2
20260906092255 54 7 12.2 13.9 0.00 0.00 0.00 97 1017.4
20260906091751 54 354 10.4 13.0 0.00 0.00 0.00 97 1017.4
20260906091247 54 312 13.0 18.2 0.00 0.00 0.00 97 1017.7
20260906090744 54 349 13.9 14.8 0.00 0.00 0.00 97 1017.4
20260906090242 54 342 12.2 14.8 0.00 0.00 0.00 97 1017.6
20260906085742 54 345 13.0 17.4 0.00 0.00 0.00 96 1017.6
20260906085241 54 7 12.2 13.9 0.00 0.00 0.00 96 1017.7
20260906084736 54 336 10.4 13.0 0.00 0.00 0.00 96 1017.8
20260906084236 54 346 11.3 13.9 0.00 0.00 0.00 96 1017.6
20260906083731 54 24 12.2 13.9 0.00 0.00 0.00 96 1017.6
20260906083226 54 351 10.4 13.0 0.00 0.00 0.00 96 1017.9
20260906082722 54 336 11.3 13.9 0.00 0.00 0.00 96 1017.8
20260906082216 54 26 11.3 15.6 0.00 0.00 0.00 95 1018.0
20260906081713 54 6 10.4 13.0 0.00 0.00 0.00 95 1017.8
20260906081207 54 18 13.0 15.6 0.00 0.00 0.00 95 1018.0
20260906080704 54 10 10.4 12.2 0.00 0.00 0.00 94 1017.7
20260906080200 54 340 12.2 17.4 0.00 0.00 0.00 94 1017.6
20260906075659 54 340 13.0 14.8 0.00 0.00 0.00 94 1017.9
20260906075154 54 20 12.2 13.0 0.00 0.00 0.00 94 1017.8
20260906074650 54 40 10.4 13.9 0.00 0.00 0.00 93 1017.4
20260906074148 55 15 11.3 14.8 0.00 0.00 0.00 93 1018.1
20260906073643 55 30 11.3 13.0 0.00 0.00 0.00 93 1017.9
20260906073139 55 13 11.3 13.9 0.00 0.00 0.00 92 1018.1
20260906072634 55 8 13.0 15.6 0.00 0.00 0.00 92 1018.0
20260906072130 55 16 14.8 20.0 0.00 0.00 0.00 91 1018.1
20260906071627 56 0 13.9 19.1 0.00 0.00 0.00 91 1018.2
20260906071126 56 13 12.2 13.9 0.00 0.00 0.00 91 1018.2
20260906070623 56 347 14.8 18.2 0.00 0.00 0.00 90 1018.3
20260906070118 56 46 11.3 13.9 0.00 0.00 0.00 90 1018.4
20260906065618 56 10 12.2 13.9 0.00 0.00 0.00 90 1018.3
20260906065114 56 44 11.3 13.0 0.00 0.00 0.00 90 1018.7
20260906064609 56 355 10.4 12.2 0.00 0.00 0.00 90 1018.7
20260906064104 56 25 11.3 14.8 0.00 0.00 0.00 90 1018.7
20260906063554 56 13 11.3 13.0 0.00 0.00 0.00 91 1018.5
20260906063050 56 3 13.0 14.8 0.00 0.00 0.00 91 1018.3
20260906062545 56 327 13.0 15.6 0.00 0.00 0.00 90 1018.5
20260906062044 56 306 12.2 13.0 0.00 0.00 0.00 91 1018.7
20260906061540 56 328 7.8 9.6 0.00 0.00 0.00 90 1018.7
20260906061039 56 346 12.2 14.8 0.00 0.00 0.00 90 1018.4
20260906060536 56 12 10.4 13.0 0.00 0.00 0.00 89 1018.7
20260906060033 56 319 10.4 13.0 0.00 0.12 0.12 90 1018.5
20260906055529 56 12 13.0 14.8 0.00 0.12 0.12 90 1018.8
20260906055024 56 355 12.2 15.6 0.00 0.12 0.12 90 1018.5
20260906054524 56 338 9.6 14.8 0.00 0.12 0.12 90 1018.4
20260906054019 56 343 11.3 13.0 0.00 0.12 0.12 90 1018.5
20260906053515 56 17 12.2 13.9 0.00 0.12 0.12 90 1018.5
20260906053011 56 11 9.6 12.2 0.00 0.12 0.12 89 1018.3
20260906052506 56 26 13.0 18.2 0.00 0.12 0.12 89 1018.4
20260906052003 56 10 13.9 15.6 0.00 0.12 0.12 89 1018.3
20260906051458 56 21 10.4 13.0 0.00 0.12 0.12 90 1018.5
20260906050955 56 11 14.8 17.4 0.00 0.12 0.12 89 1018.4
20260906050454 56 333 12.2 14.8 0.00 0.12 0.12 88 1019.4
20260906045953 56 341 8.7 8.7 0.00 0.12 0.12 89 1019.3
20260906045452 56 349 11.3 13.0 0.00 0.12 0.12 89 1018.9
20260906044948 56 344 9.6 14.8 0.00 0.12 0.12 89 1018.4
20260906044443 56 323 12.2 13.9 0.00 0.12 0.12 90 1018.2
20260906043939 56 1 10.4 13.0 0.00 0.12 0.12 90 1018.0
20260906043434 56 320 11.3 13.9 0.00 0.12 0.12 90 1018.0
20260906042930 56 0 11.3 13.0 0.00 0.12 0.12 89 1017.9
20260906042429 56 343 9.6 12.2 0.00 0.12 0.12 89 1017.7
20260906041925 56 341 12.2 17.4 0.00 0.12 0.12 88 1017.8
20260906041421 56 12 12.2 14.8 0.00 0.12 0.12 88 1018.1
20260906040920 56 21 12.2 14.8 0.00 0.12 0.12 88 1018.0
20260906040415 57 337 13.9 15.6 0.00 0.12 0.12 87 1017.8
20260906035911 57 347 13.9 17.4 0.07 0.12 0.12 87 1017.7
20260906035406 57 5 15.6 18.2 0.38 0.12 0.12 86 1018.0
20260906034901 56 9 13.0 17.4 0.54 0.11 0.11 87 1018.1
20260906034355 56 314 13.9 19.1 0.38 0.08 0.08 87 1018.3
20260906033851 59 22 13.0 15.6 0.00 0.02 0.02 74 1018.8
20260906033351 59 318 11.3 14.8 0.00 0.02 0.02 74 1019.8
20260906032847 59 338 12.2 13.9 0.00 0.02 0.02 74 1018.4
20260906032343 59 318 12.2 14.8 0.00 0.02 0.02 74 1017.7
20260906031838 59 13 12.2 14.8 0.00 0.02 0.02 74 1017.3
20260906031333 59 327 12.2 13.9 0.00 0.02 0.02 74 1017.3
20260906030833 59 351 14.8 17.4 0.00 0.02 0.02 74 1017.1
20260906030329 59 3 12.2 14.8 0.00 0.02 0.02 74 1017.2
20260906025829 59 1 11.3 13.9 0.00 0.02 0.02 74 1017.3
20260906025322 59 350 13.0 14.8 0.00 0.02 0.02 74 1017.0
20260906024822 59 12 13.0 15.6 0.00 0.02 0.02 73 1017.0
20260906024321 59 19 14.8 18.2 0.00 0.02 0.02 73 1017.0
20260906023817 59 12 10.4 13.0 0.00 0.02 0.02 72 1016.8
20260906023312 59 13 14.8 18.2 0.00 0.02 0.02 72 1017.0
20260906022808 59 15 10.4 13.9 0.00 0.02 0.02 71 1016.7
20260906022306 59 6 13.9 14.8 0.00 0.02 0.02 71 1016.8
20260906021758 60 9 13.0 14.8 0.00 0.02 0.02 70 1016.8
20260906021257 60 21 10.4 12.2 0.00 0.02 0.02 70 1016.8
20260906020752 60 32 12.2 13.9 0.00 0.02 0.02 69 1016.8
20260906020252 60 5 13.0 18.2 0.00 0.02 0.02 69 1016.9
20260906015752 60 16 10.4 15.6 0.00 0.02 0.02 69 1016.9
20260906015251 60 17 9.6 13.9 0.00 0.02 0.02 69 1016.9
20260906014746 61 23 12.2 15.6 0.00 0.02 0.02 68 1016.9
20260906014241 61 27 13.0 13.9 0.00 0.02 0.02 68 1016.8
20260906013737 61 20 10.4 12.2 0.00 0.02 0.02 67 1017.0
20260906013237 62 6 12.2 14.8 0.00 0.02 0.02 66 1016.9
20260906012732 62 11 12.2 13.9 0.00 0.02 0.02 67 1016.9
20260906012227 62 21 11.3 13.9 0.00 0.02 0.02 66 1016.8
20260906011723 62 358 14.8 17.4 0.00 0.02 0.02 66 1016.5
20260906011217 63 22 10.4 13.0 0.00 0.02 0.02 65 1016.7
20260906010713 63 24 11.3 13.9 0.00 0.02 0.02 64 1016.7
20260906010209 64 27 13.0 17.4 0.00 0.02 0.02 63 1016.3
20260906005708 64 16 13.0 14.8 0.00 0.02 0.02 62 1016.7
20260906005203 66 355 11.3 14.8 0.00 0.02 0.02 60 1016.7
20260906004702 65 346 13.0 14.8 0.00 0.02 0.02 59 1016.5
20260906004156 65 353 9.6 11.3 0.00 0.02 0.02 60 1016.7
20260906003652 66 357 13.9 14.8 0.00 0.02 0.02 59 1016.5
20260906003147 67 333 14.8 19.1 0.00 0.02 0.02 57 1016.6
20260906002642 67 344 10.4 12.2 0.00 0.02 0.02 58 1016.6
20260906002136 67 9 12.2 13.9 0.00 0.02 0.02 56 1016.5
20260906001632 67 6 13.0 15.6 0.00 0.02 0.02 57 1016.5
20260906001131 68 17 11.3 13.0 0.00 0.02 0.02 56 1016.9
20260906000627 68 343 11.3 13.9 0.00 0.02 0.02 55 1016.9
20260906000123 68 29 13.9 17.4 0.00 0.02 0.02 55 1017.1
20260905235621 67 351 7.8 9.6 0.00 0.02 0.02 57 1016.9
20260905235117 68 34 13.0 14.8 0.00 0.02 0.02 56 1016.9
20260905234612 68 6 12.2 14.8 0.00 0.02 0.02 56 1017.0
20260905234108 68 15 9.6 13.0 0.00 0.02 0.02 55 1017.1
20260905233608 68 1 10.4 12.2 0.00 0.02 0.02 55 1017.0
20260905233102 68 5 7.8 8.7 0.00 0.02 0.02 54 1016.9
20260905232557 68 342 12.2 13.0 0.00 0.02 0.02 54 1016.9
20260905232053 69 4 9.6 13.9 0.00 0.02 0.02 54 1016.8
20260905231548 69 32 9.6 12.2 0.00 0.02 0.02 54 1016.8
20260905231044 70 21 11.3 13.0 0.00 0.02 0.02 52 1016.7
20260905230544 69 36 12.2 13.9 0.00 0.02 0.02 53 1016.5
20260905230042 70 33 11.3 13.0 0.00 0.02 0.02 51 1016.8